Cross City, FL

8:06 PM EST on November 21, 2019 (GMT -0500)
Cross City

Weather History for KCTY - July, 2019

Change the Weather History Date:

Sunday, July 14, 2019

  Actual Average Record
Temperature  
Mean Temperature 84 °F 81 °F  
Max Temperature 94 °F 91 °F 95 °F (2017)
Min Temperature 73 °F 72 °F 69 °F (1999)
Degree Days  
Heating Degree Days 0    
Month to date heating degree days 0  
Since 1 June heating degree days 0  
Since 1 July heating degree days 0  
Cooling Degree Days 19    
Month to date cooling degree days 257  
Year to date cooling degree days 1433  
Since 1 June cooling degree days 749  
Growing Degree Days 33 (Base 50)    
Moisture  
Dew Point 75 °F    
Average Humidity 79    
Maximum Humidity 100    
Minimum Humidity 47    
Precipitation  
Precipitation 0.00 in 0.17 in 1.72 in (2007)
Month to date precipitation 2.03 2.39  
Year to date precipitation 30.68 24.65  
Sea Level Pressure  
Sea Level Pressure 30.13 in    
Wind  
Wind Speed 3 mph (SSW)    
Max Wind Speed 7 mph    
Max Gust Speed -    
Visibility 10 miles    
Events      
T = Trace of Precipitation, MM = Missing Value Source: NWS Daily Summary

Daily Weather History Graph

Daily Weather History Graph

Search for Another Location

Airport or City:

Astronomy

Jul. 14, 2019 Rise Set
Actual Time 6:41 AM EDT 8:34 PM EDT
Civil Twilight 6:14 AM EDT 9:01 PM EDT
Nautical Twilight 5:42 AM EDT 9:33 PM EDT
Astronomical Twilight 5:08 AM EDT 10:07 PM EDT
Moon 6:55 PM EDT (7/14) 4:41 AM EDT (7/14)
Length of Visible Light 14h 46m
Length of Day
13h 52m
Waxing Gibbous, 95% of the Moon is Illuminated
Jul 14
Waxing Gibbous
Jul 16
Full
Jul 24
Last Quarter
Jul 31
New
Aug 7
First Quarter

Hourly Weather History & Observations

Time (EDT) Temp. Heat Index Dew Point Humidity Pressure Visibility Wind Dir Wind Speed Gust Speed Precip Events Conditions
12:15 AM 76.3 °F - 74.7 °F 95% 30.13 in 10.0 mi Calm Calm - N/A   Clear
12:35 AM 75.9 °F - 74.8 °F 96% 30.13 in 10.0 mi Calm Calm - N/A   Clear
12:55 AM 75.9 °F - 74.8 °F 96% 30.13 in 10.0 mi Calm Calm - N/A   Clear
1:15 AM 74.7 °F - 73.6 °F 96% 30.13 in 10.0 mi Calm Calm - N/A   Clear
1:35 AM 75.0 °F - 73.6 °F 95% 30.12 in 10.0 mi Calm Calm - N/A   Clear
1:55 AM 74.8 °F - 73.9 °F 97% 30.12 in 10.0 mi Calm Calm - N/A   Clear
2:15 AM 75.0 °F - 74.3 °F 98% 30.12 in 10.0 mi NNE 3.5 mph - N/A   Clear
2:35 AM 74.5 °F - 73.2 °F 96% 30.12 in 10.0 mi Calm Calm - N/A   Clear
2:55 AM 74.1 °F - 72.9 °F 96% 30.11 in 10.0 mi Calm Calm - N/A   Clear
3:15 AM 75.2 °F - 73.4 °F 94% 30.11 in 10.0 mi Calm Calm - N/A   Clear
3:35 AM 74.3 °F - 73.0 °F 96% 30.11 in 10.0 mi Calm Calm - N/A   Clear
3:55 AM 74.3 °F - 73.2 °F 96% 30.11 in 10.0 mi Calm Calm - N/A   Clear
4:15 AM 74.3 °F - 73.0 °F 96% 30.11 in 10.0 mi Calm Calm - N/A   Scattered Clouds
4:35 AM 75.4 °F - 74.3 °F 96% 30.11 in 10.0 mi Calm Calm - N/A   Mostly Cloudy
4:55 AM 75.2 °F - 74.1 °F 96% 30.11 in 10.0 mi Calm Calm - N/A   Mostly Cloudy
5:15 AM 75.2 °F - 73.6 °F 95% 30.11 in 10.0 mi Calm Calm - N/A   Clear
5:35 AM 74.3 °F - 73.2 °F 96% 30.11 in 10.0 mi Calm Calm - N/A   Clear
5:55 AM 73.4 °F - 73.4 °F 100% 30.12 in 10.0 mi Calm Calm - N/A   Clear
6:15 AM 73.8 °F - 72.9 °F 97% 30.12 in 7.0 mi Calm Calm - N/A   Clear
6:35 AM 74.7 °F - 73.6 °F 96% 30.12 in 10.0 mi Calm Calm - N/A   Clear
6:55 AM 73.8 °F - 72.5 °F 96% 30.13 in 10.0 mi Calm Calm - N/A   Clear
7:15 AM 74.5 °F - 73.6 °F 97% 30.14 in 10.0 mi Calm Calm - N/A   Clear
7:35 AM 75.2 °F - 73.4 °F 94% 30.14 in 10.0 mi Calm Calm - N/A   Clear
7:55 AM 76.5 °F - 75.0 °F 95% 30.14 in 10.0 mi Calm Calm - N/A   Clear
8:35 AM 80.1 °F 86.0 °F 77.4 °F 91% 30.15 in 10.0 mi SSE 6.9 mph - N/A   Clear
8:55 AM 81.3 °F 89.4 °F 78.1 °F 90% 30.15 in 10.0 mi SSE 4.6 mph - N/A   Clear
9:15 AM 82.8 °F 92.9 °F 78.4 °F 87% 30.16 in 10.0 mi SSE 4.6 mph - N/A   Clear
9:35 AM 82.6 °F 92.3 °F 78.4 °F 87% 30.16 in 7.0 mi South 5.8 mph - N/A   Haze
9:55 AM 84.6 °F 96.8 °F 78.8 °F 83% 30.17 in 10.0 mi South 5.8 mph - N/A   Scattered Clouds
10:15 AM 85.1 °F 96.7 °F 78.1 °F 79% 30.17 in 10.0 mi SSE 5.8 mph - N/A   Scattered Clouds
10:35 AM 86.5 °F 99.4 °F 78.3 °F 76% 30.17 in 7.0 mi South 3.5 mph - N/A   Haze
10:55 AM 87.8 °F 100.8 °F 77.9 °F 72% 30.17 in 10.0 mi ESE 3.5 mph - N/A   Scattered Clouds
11:15 AM 88.3 °F 98.4 °F 75.4 °F 65% 30.17 in 10.0 mi SSW 5.8 mph - N/A   Scattered Clouds
11:35 AM 88.7 °F 99.3 °F 75.7 °F 65% 30.18 in 10.0 mi SE 5.8 mph - N/A   Scattered Clouds
11:55 AM 89.4 °F 100.0 °F 75.4 °F 63% 30.18 in 10.0 mi South 4.6 mph - N/A   Scattered Clouds
12:15 PM 90.7 °F 101.3 °F 75.0 °F 60% 30.18 in 5.0 mi Calm Calm - N/A   Haze
12:35 PM 90.7 °F 100.1 °F 74.3 °F 58% 30.17 in 10.0 mi SSE 6.9 mph - N/A   Scattered Clouds
12:55 PM 90.1 °F 100.6 °F 74.8 °F 61% 30.17 in 10.0 mi SSW 3.5 mph - N/A   Scattered Clouds
1:15 PM 91.0 °F 99.8 °F 73.6 °F 56% 30.16 in 10.0 mi North 4.6 mph - N/A   Mostly Cloudy
1:35 PM 92.7 °F 101.7 °F 73.4 °F 53% 30.16 in 10.0 mi ESE 5.8 mph - N/A   Scattered Clouds
1:55 PM 91.4 °F 100.1 °F 73.2 °F 55% 30.15 in 10.0 mi WSW 5.8 mph - N/A   Scattered Clouds
2:15 PM 93.4 °F 103.4 °F 73.8 °F 53% 30.15 in 10.0 mi South 4.6 mph - N/A   Scattered Clouds
2:35 PM 92.1 °F 99.9 °F 72.0 °F 52% 30.14 in 10.0 mi SE 3.5 mph - N/A   Scattered Clouds
2:55 PM 92.1 °F 100.5 °F 72.9 °F 53% 30.13 in 10.0 mi Calm Calm - N/A   Mostly Cloudy
3:15 PM 93.0 °F 103.9 °F 74.5 °F 55% 30.12 in 10.0 mi SSW 4.6 mph - N/A   Mostly Cloudy
3:35 PM 91.4 °F 100.7 °F 73.6 °F 56% 30.11 in 10.0 mi SW 9.2 mph - N/A   Scattered Clouds
3:55 PM 90.5 °F 100.9 °F 74.7 °F 60% 30.11 in 10.0 mi WSW 5.8 mph - N/A   Scattered Clouds
4:15 PM 91.6 °F 101.7 °F 74.5 °F 57% 30.10 in 10.0 mi SW 6.9 mph - N/A   Scattered Clouds
4:35 PM 92.3 °F 102.2 °F 73.8 °F 55% 30.10 in 10.0 mi South 8.1 mph - N/A   Clear
4:55 PM 92.3 °F 101.5 °F 73.4 °F 54% 30.09 in 10.0 mi SW 6.9 mph - N/A   Clear
5:15 PM 90.5 °F 99.7 °F 74.1 °F 58% 30.09 in 10.0 mi SW 6.9 mph - N/A   Clear
5:35 PM 92.1 °F 102.4 °F 74.5 °F 56% 30.09 in 10.0 mi SW 6.9 mph - N/A   Clear
5:55 PM 91.4 °F 100.1 °F 73.2 °F 55% 30.09 in 10.0 mi SW 5.8 mph - N/A   Scattered Clouds
6:15 PM 91.4 °F 100.1 °F 73.4 °F 55% 30.08 in 10.0 mi West 6.9 mph - N/A   Clear
6:55 PM 88.5 °F 97.8 °F 74.5 °F 63% 30.09 in 10.0 mi West 6.9 mph - N/A   Clear
7:15 PM 87.4 °F 96.2 °F 74.3 °F 65% 30.10 in 10.0 mi WNW 5.8 mph - N/A   Clear
7:35 PM 86.5 °F 95.5 °F 74.7 °F 68% 30.10 in 10.0 mi WNW 8.1 mph - N/A   Clear
7:55 PM 84.7 °F 93.2 °F 75.2 °F 73% 30.10 in 10.0 mi West 6.9 mph - N/A   Clear
8:15 PM 83.8 °F 92.1 °F 75.6 °F 76% 30.10 in 10.0 mi WNW 5.8 mph - N/A   Clear
8:35 PM 82.8 °F 90.4 °F 75.6 °F 79% 30.10 in 10.0 mi WNW 4.6 mph - N/A   Clear
8:55 PM 82.4 °F 89.8 °F 75.7 °F 80% 30.10 in 10.0 mi NNW 3.5 mph - N/A   Clear
9:15 PM 81.0 °F 87.3 °F 75.9 °F 85% 30.11 in 10.0 mi Calm Calm - N/A   Clear
9:35 PM 80.4 °F 86.1 °F 75.9 °F 86% 30.11 in 10.0 mi NNW 3.5 mph - N/A   Clear
10:15 PM 78.6 °F - 75.6 °F 90% 30.11 in 7.0 mi Calm Calm - N/A   Clear
10:35 PM 78.3 °F - 75.7 °F 92% 30.11 in 10.0 mi Calm Calm - N/A   Clear
10:55 PM 77.9 °F - 75.6 °F 92% 30.12 in 10.0 mi Calm Calm - N/A   Clear
11:15 PM 77.9 °F - 76.1 °F 94% 30.12 in 10.0 mi Calm Calm - N/A   Clear
11:35 PM 77.5 °F - 75.7 °F 94% 30.12 in 10.0 mi Calm Calm - N/A   Clear
11:55 PM 77.2 °F - 75.4 °F 94% 30.12 in 10.0 mi Calm Calm - N/A   Clear